HELIOS 1B

Last updated on Sun Aug 31 2025 00:02:14 GMT+0000 (Coordinated Universal Time)

1 25977U 99064A 25241.96270145 .00002046 00000+0 23682-3 0 9991 2 25977 98.1835 133.5441 0001358 40.0665 320.0649 14.86681248656767
UTC large
Height (km)
Speed (km/s)
/
Latitude / Longitude
Inclination (degrees)
Orbital Period (minutes)
Azimuth
Elevation
Range (km)
Doppler Factor

Next 0 passes for location: London (51.5072 / 0.1276)

Sorry there are no passes over London.